User: anonymous   Login
Location: Unspecified
(0.0000°N, 0.0000°E)
Time: 08:44:13
(UTC+02:00)
Language:

Cosmos 1943 Rocket - Orbit

View from above orbital plane
View from above orbital plane
View from above satellite
View from above satellite

Ground track
Ground track

The orbit data is extracted from the following two-line orbital elements,

1 19120U 88039B   16272.09862890  .00000027  00000-0  35853-4 0  9998
2 19120  71.0150 158.6966 0023692 233.6331 126.2608 14.19152591469207
Epoch (UTC): 28 September 2016 02:22:01
Eccentricity: 0.0023692
inclination: 71.0150°
perigee height: 811 km
apogee height: 845 km
right ascension of ascending node: 158.6966°
argument of perigee: 233.6331°
revolutions per day: 14.19152591
mean anomaly at epoch: 126.2608°
orbit number at epoch: 46920

The dashed part of the orbit path shows where the satellite is in the earth's shadow,  

DLR